Regional Weather Roundup
Issued by NWS

Home | Current Version | Previous Version | Text Only | Print | Product List | Glossary Off
Versions: 1 2 3 4 5 6 7 8 9 10 11 12 13 14 15 16 17 18 19 20 21 22 23 24 25 26 27 28 29 30 31 32 33 34 35 36 37 38 39 40 41 42 43 44 45 46 47 48 49 50

000
ASUS43 KDMX 220506
RWRIA

WEATHER ROUNDUP FOR IOWA
NATIONAL WEATHER SERVICE DES MOINES IA
1200 AM CDT FRI SEP 22 2017

NOTE: "FAIR" INDICATES FEW OR NO CLOUDS BELOW 12,000 FEET WITH NO
SIGNIFICANT WEATHER AND/OR OBSTRUCTIONS TO VISIBILITY.

* - THESE STATIONS ARE NOT NWS STATIONS...THUS NOT UNDER NWS
QUALITY CONTROL.  THEY ALSO DO NOT REPORT WEATHER SUCH
AS PRECIPITATION OR FOG.

IAZ001>003-012>014-020>022-031>034-043>046-220600-
   NORTHWEST IOWA

CITY           SKY/WX    TMP DP  RH WIND       PRES   REMARKS
CARROLL *      CLEAR     79  72  78 S12G20    29.84R HX  82
CHEROKEE *     CLEAR     75  73  93 S10       29.79S
DENISON *      CLEAR     77  72  83 S16G23    29.83R
LE MARS *      CLEAR     81  73  78 S13G22    29.76R HX  85
ORANGE CITY *  CLEAR     81  73  78 S9        29.77S HX  85
SHELDON *      CLEAR     75  72  88 S10       29.76S
SIOUX CITY     CLEAR     79  74  84 SE9       29.75S HX  82
SPENCER        CLEAR     76  71  85 S13       29.80S
STORM LAKE *   CLEAR     75  72  88 S10G17    29.82S
$$

IAZ055>058-069>071-079>083-090>094-220600-
   SOUTHWEST IOWA

CITY           SKY/WX    TMP DP  RH WIND       PRES   REMARKS
ATLANTIC *     CLEAR     79  72  78 S13       29.85R HX  82
AUDUBON *      CLEAR     77  72  83 S7        29.86S
CLARINDA *     CLEAR     79  73  83 S7        29.88R HX  82
COUNCIL BLFS * PTCLDY    81  77  89 S13G20    29.82R HX  88
CRESTON *      CLEAR     77  70  78 S9        29.91R
HARLAN  *      PTCLDY    79  73  83 S12G18    29.87R HX  82
LAMONI         CLEAR     79  70  74 S13       29.91R HX  82
RED OAK *      CLEAR     79  73  83 S10       29.85R HX  82
SHENANDOAH *   CLEAR     81  73  78 S14G20    29.84S HX  85
$$

IAZ047>049-059>061-072>074-084-220600-
   CENTRAL IOWA

CITY           SKY/WX    TMP DP  RH WIND       PRES   REMARKS
AMES           CLEAR     76  71  85 S8        29.89R
ANKENY *       CLEAR     79  70  73 S9        29.89R HX  81
BOONE *        CLEAR     79  70  73 S9        29.88R HX  81
CHARITON *     CLEAR     77  68  73 S10       29.91R
DES MOINES     CLEAR     80  69  69 S12       29.88R HX  83
GRINNELL*      PTCLDY    76  71  84 S9        29.93S
KNOXVILLE *    CLEAR     77  68  73 SE9       29.89S
MARSHALLTOWN   CLEAR     74  71  91 SE8       29.90R
NEWTON *       CLEAR     75  70  83 S9        29.91S
PELLA *        CLOUDY    77  67  71 SE8       29.91F
PERRY *          N/A     76  72  86 SE7       29.87R
$$

IAZ004>006-015-016-023>025-035-036-220600-
   NORTH CENTRAL IOWA

CITY           SKY/WX    TMP DP  RH WIND       PRES   REMARKS
ALGONA *       CLEAR     77  72  83 S13       29.84S
CLARION *      MOCLDY    77  72  83 S13       29.87R
ESTHERVILLE    CLEAR     76  71  85 S16       29.81R
FORT DODGE *   CLEAR     79  69  71 S12G20    29.86R HX  81
MASON CITY     MOCLDY    75  69  81 SE10      29.91R
FOREST CITY *  CLOUDY    75  70  83 SE10      29.88R
WEBSTER CITY * CLEAR     77  70  78 SE10      29.86R
IOWA FALLS *     N/A     74  71  88 SE8       29.91R
$$

IAZ007>011-017>019-026>030-037>042-050>054-066-220600-
   NORTHEAST IOWA

CITY           SKY/WX    TMP DP  RH WIND       PRES   REMARKS
CEDAR RAPIDS   CLEAR     76  71  85 S9        29.94R
CHARLES CITY * CLEAR     73  70  88 SE9       29.92S
CLINTON *      CLEAR    N/A N/A N/A SE8       29.98R
DECORAH *      CLEAR     73  70  88 S9G15     29.93S
DUBUQUE        CLEAR     73  68  84 S12       29.98R
MONTICELLO *   CLEAR     75  70  83 SE7       29.96R
OELWEIN *      CLEAR     73  72  94 S10       29.95R
WATERLOO       CLEAR     74  69  85 SE12      29.91R
$$

IAZ064-065-067-068-078-220600-
   EAST CENTRAL IOWA

CITY           SKY/WX    TMP DP  RH WIND       PRES   REMARKS
DAVENPORT      CLEAR     75  69  81 SE8       29.99R
IOWA CITY      CLEAR     75  70  84 SE5       29.96R
MUSCATINE *    CLEAR     73  70  88 CALM      29.95S
QUAD CITIES    CLEAR     76  68  76 S7        29.96R
$$

IAZ062-063-075>077-085>089-095>099-220600-
   SOUTHEAST IOWA

CITY           SKY/WX    TMP DP  RH WIND       PRES   REMARKS
BURLINGTON     CLEAR     78  70  76 S12       29.96R HX  80
FAIRFIELD *    PTCLDY    77  70  78 S12       29.94S
FORT MADISON * CLEAR     77  70  78 S8        29.97R
KEOKUK *       CLEAR     79  70  73 S8G16     29.95S HX  81
OSKALOOSA *      N/A     75  71  87 S8        29.93S
OTTUMWA        PTCLDY    78  72  81 S10       29.93R HX  80
WASHINGTON *   CLEAR     72  72 100 SE6       29.96S
$$

ABBREVIATIONS USED IN REMARKS
   TC - TEMPERATURES IN CELSIUS
  WCI - WIND CHILL INDEX
   HX - HEAT INDEX
  VSB - VISIBILITY
$$





USA.gov is the U.S. government's official web portal to all federal, state and local government web resources and services.